Regional Weather Roundup
Issued by NWS

Home | Current Version | Previous Version | Graphics & Text | Print | Product List | Glossary On
Versions: 1 2 3 4 5 6 7 8 9 10 11 12 13 14 15 16 17 18 19 20 21 22 23 24 25 26 27 28 29 30 31 32 33 34 35 36 37 38 39 40 41 42 43 44 45 46 47 48 49 50
000
ASUS43 KLOT 281806
RWRIL

ILLINOIS REGIONAL WEATHER ROUNDUP
NATIONAL WEATHER SERVICE CHICAGO/ROMEOVILLE IL
1200 PM CST SUN DEC 28 2014

NOTE: "FAIR" INDICATES FEW OR NO CLOUDS BELOW 12,000 FEET WITH NO
SIGNIFICANT WEATHER AND/OR OBSTRUCTIONS TO VISIBILITY.

* THESE STATIONS ARE NOT UNDER NWS QUALITY CONTROL. THEY ALSO MAY NOT
  REPORT WEATHER SUCH AS PRECIPITATION OR FOG.

ILZ001-002-007-009-015-016-024-281900-
NORTHWEST ILLINOIS

CITY           SKY/WX    TMP DP  RH WIND       PRES   REMARKS
MOLINE         SUNNY     31  19  61 W3        30.19F
6HR MIN TEMP:  16; 6HR MAX TEMP:  31;

STERLING*      SUNNY     30  16  55 W7        30.19F WCI  23
SAVANNA*       SUNNY     29  19  66 SW3       30.19F
$$

ILZ003-004-008-010-011-017-018-281900-
NORTH CENTRAL ILLINOIS

CITY           SKY/WX    TMP DP  RH WIND       PRES   REMARKS
ROCKFORD       MOSUNNY   31  18  58 CALM      30.18F
6HR MIN TEMP:  18; 6HR MAX TEMP:  32;

FREEPORT*      SUNNY     28  21  75 SW6       30.17F WCI  21
ROCHELLE*      SUNNY     29  19  67 W7        30.17F WCI  21
DE KALB*       SUNNY     29  14  54 W6        30.16F WCI  23
PERU*          MOSUNNY   30  17  58 W5        30.19F WCI  26
$$

ILZ005-006-012>014-019>023-281900-
NORTHEAST ILLINOIS

CITY           SKY/WX    TMP DP  RH WIND       PRES   REMARKS
CHICAGO-OHARE  MOSUNNY   31  15  52 W9        30.15F WCI  23
6HR MIN TEMP:  22; 6HR MAX TEMP:  31;

CHICAGO-MIDWAY MOSUNNY   30  17  58 SW7       30.17F WCI  23
6HR MIN TEMP:  26; 6HR MAX TEMP:  30;

AURORA         MOSUNNY   30  16  56 W7        30.18F WCI  23
6HR MIN TEMP:  22; 6HR MAX TEMP:  30;

LANSING*       PTSUNNY   30  20  67 W5        30.17F WCI  25
JOLIET*        PTSUNNY   26  18  71 W6        30.19F WCI  19
WAUKEGAN       SUNNY     31  16  54 W8        30.14F WCI  23
6HR MIN TEMP:  20; 6HR MAX TEMP:  31;

DUPAGE AIRPORT MOSUNNY   30  16  56 W8        30.15F WCI  22
6HR MIN TEMP:  22; 6HR MAX TEMP:  30;

KANKAKEE*      PTSUNNY   29  24  79 SW3       30.18F
WHEELING       SUNNY     31  13  47 SW6       30.17F WCI  25
6HR MIN TEMP:  23; 6HR MAX TEMP:  31;

MORRIS*        PTSUNNY   26  20  78 W7        30.18F WCI  19
ROMEOVILLE*    PTSUNNY   26  18  72 W6        30.18F WCI  20
NORTHERLY ISL    N/A     29  15  56 W7          N/A  WCI  22
$$

LMZ740>746-281900-
SOUTHERN LAKE MICHIGAN

STATION/POSITION SKY/WX   TEMP    WIND        PRES    VSBY  WAVE
                          AIR SEA DIR/SP/G                  HT/PER
                          (F)     (DEG/KT/KT) (MB)    (MI)  (FT/S)
WAUKEGAN HARBOR            29     270/  9/ 12   N/A
HARRISON CRIB              28     270/  8/ 10   N/A
BURNHAM HARBOR             29     270/  5/ 10   N/A
CALUMET HARBOR             29     220/  5/  8 1020.2F
MICHIGAN CITY              29     230/ 10/ 12   N/A
$$

ILZ025>027-034>036-040-047-049-050-058-095>099-281900-
WEST-CENTRAL ILLINOIS

CITY           SKY/WX    TMP DP  RH WIND       PRES   REMARKS
QUINCY         MOSUNNY   31  21  66 VRB6      30.21F WCI  25
GALESBURG*     SUNNY     31  23  71 SW6       30.19F WCI  25
MACOMB*        MOSUNNY   32  23  69 SW7       30.23F WCI  25
JACKSONVILLE*  CLOUDY    32  23  69 W5        30.21F WCI  28
PITTSFIELD*    PTSUNNY   32  24  73 SW6       30.23F WCI  26
$$

ILZ028>032-037-038-041>044-048-051>054-059>061-281900-
CENTRAL ILLINOIS

CITY           SKY/WX    TMP DP  RH WIND       PRES   REMARKS
PONTIAC        PTSUNNY   29  19  64 NW7       30.20F WCI  22
BLOOMINGTON    PTSUNNY   31  20  63 NW9       30.20F WCI  23
DECATUR        PTSUNNY   30  20  66 NW12      30.21F WCI  20
PEORIA         PTSUNNY   29  19  66 W6        30.21F WCI  23
6HR MIN TEMP:  24; 6HR MAX TEMP:  30;

LACON*         MOSUNNY   28  18  67 SW6       30.20F WCI  21
LINCOLN*       PTSUNNY   32  23  68 W6        30.23F WCI  27
SPRINGFIELD    PTSUNNY   31  22  69 W8        30.23F WCI  23
6HR MIN TEMP:  29; 6HR MAX TEMP:  32;

TAYLORVILLE    CLOUDY    30  25  80 W7        30.22F WCI  23
$$

ILZ033-039-045-046-055>057-062-063-281900-
EAST-CENTRAL ILLINOIS

CITY           SKY/WX    TMP DP  RH WIND       PRES   REMARKS
CHAMPAIGN      CLOUDY    29  21  72 NW12      30.19F WCI  19
DANVILLE*      CLOUDY    27  21  79 W3        30.16F
RANTOUL*       PTSUNNY   29  20  68 NW9       30.19F WCI  21
MATTOON        CLOUDY    29  23  78 NW9       30.19F WCI  20
PARIS*         CLOUDY    30  24  80 NW7       30.20F WCI  23
$$

ILZ079-100>102-281900-
SOUTHWEST ILLINOIS

CITY           SKY/WX    TMP DP  RH WIND       PRES   REMARKS
ALTON          CLOUDY    32  27  80 NW8       30.24F WCI  25
BELLEVILLE     CLOUDY    33  26  75 N6        30.22F WCI  28
CAHOKIA*       CLOUDY    34  26  72 NW6       30.23F WCI  29
SPARTA*        CLOUDY    32  26  79 NW3       30.24F
$$

ILZ064>066-069>071-074>076-080>082-084>086-088>090-092>094-281900-
SOUTH-CENTRAL ILLINOIS

CITY           SKY/WX    TMP DP  RH WIND       PRES   REMARKS
CARBONDALE     CLOUDY    33  27  78 NW7       30.22F WCI  27
6HR MIN TEMP:  33; 6HR MAX TEMP:  34;

CAIRO*         CLOUDY    38  31  76 N7        30.22F WCI  33
EFFINGHAM*     CLOUDY    32  23  70 NW6       30.23F WCI  26
MARION         CLOUDY    34  28  80 N12       30.23F WCI  25
MT. VERNON     CLOUDY    32  25  74 CALM      30.22F
CENTRALIA*     CLOUDY    32  26  78 NW5       30.22F WCI  27
SALEM*         CLOUDY    33  27  79 N3        30.22F
METROPOLIS*    CLOUDY    36  33  89 N9        30.21S WCI  29
$$

ILZ067-068-072-073-078-083-087-091-281900-
SOUTHEAST ILLINOIS

CITY           SKY/WX    TMP DP  RH WIND       PRES   REMARKS
LAWRENCEVILLE  CLOUDY    33  27  78 N7        30.21F WCI  27
FLORA*         CLOUDY    32  26  77 N5        30.22F WCI  27
FAIRFIELD*     CLOUDY    33  27  80 N5        30.21F WCI  28
HARRISBURG*    CLOUDY    33  29  83 N6        30.23F WCI  28
ROBINSON*      CLOUDY    32  27  80 NW7       30.22F WCI  26
CARMI*         CLOUDY    35  32  87 N6        30.21F WCI  30
$$

ABBREVIATIONS USED IN REMARKS
   TC - TEMPERATURE IN CELSIUS
  WCI - WIND CHILL INDEX
   HX - HEAT INDEX
  VSB - VISIBILITY
$$




USA.gov is the U.S. government's official web portal to all federal, state and local government web resources and services.